Year,Month,Day,Hour,Minute,Value (Times are PST for temperature in C)
2014,11,14,00,00,0.60
2014,11,14,00,01,0.60
2014,11,14,00,02,0.60
2014,11,14,00,03,0.60
2014,11,14,00,04,0.60
2014,11,14,00,05,0.60
2014,11,14,00,06,0.50
2014,11,14,00,07,0.50
2014,11,14,00,08,0.50
2014,11,14,00,09,0.40
2014,11,14,00,10,0.40
2014,11,14,00,11,0.40
2014,11,14,00,12,0.40
2014,11,14,00,13,0.40
2014,11,14,00,14,0.40
2014,11,14,00,15,0.30
2014,11,14,00,16,0.30
2014,11,14,00,17,0.30
2014,11,14,00,18,0.30
2014,11,14,00,19,0.20
2014,11,14,00,20,0.20
2014,11,14,00,21,0.20
2014,11,14,00,22,0.20
2014,11,14,00,23,0.10
2014,11,14,00,24,0.10
2014,11,14,00,25,0.10
2014,11,14,00,26,0.10
2014,11,14,00,27,0.10
2014,11,14,00,28,0.10
2014,11,14,00,29,0.10
2014,11,14,00,30,0.10
2014,11,14,00,31,0.10
2014,11,14,00,32,0.10
2014,11,14,00,33,0.10
2014,11,14,00,34,0.00
2014,11,14,00,35,0.00
2014,11,14,00,36,0.00
2014,11,14,00,37,0.00
2014,11,14,00,38,0.00
2014,11,14,00,39,-0.10
2014,11,14,00,40,-0.10
2014,11,14,00,41,-0.10
2014,11,14,00,42,-0.10
2014,11,14,00,43,-0.10
2014,11,14,00,44,-0.10
2014,11,14,00,45,-0.10
2014,11,14,00,46,-0.10
2014,11,14,00,47,0.00
2014,11,14,00,48,0.00
2014,11,14,00,49,0.00
2014,11,14,00,50,0.00
2014,11,14,00,51,0.00
2014,11,14,00,52,-0.10
2014,11,14,00,53,-0.10
2014,11,14,00,54,-0.10
2014,11,14,00,55,-0.10
2014,11,14,00,56,-0.10
2014,11,14,00,57,-0.10
2014,11,14,00,58,-0.10
2014,11,14,00,59,-0.10
2014,11,14,01,00,-0.10
2014,11,14,01,01,-0.10
2014,11,14,01,02,-0.10
2014,11,14,01,03,-0.10
2014,11,14,01,04,-0.10
2014,11,14,01,05,-0.10
2014,11,14,01,06,-0.20
2014,11,14,01,07,-0.20
2014,11,14,01,08,-0.20
2014,11,14,01,09,-0.20
2014,11,14,01,10,-0.20
2014,11,14,01,11,-0.20
2014,11,14,01,12,-0.20
2014,11,14,01,13,-0.10
2014,11,14,01,14,0.00
2014,11,14,01,15,0.10
2014,11,14,01,16,0.20
2014,11,14,01,17,0.30
2014,11,14,01,18,0.40
2014,11,14,01,19,0.50
2014,11,14,01,20,0.60
2014,11,14,01,21,0.70
2014,11,14,01,22,0.80
2014,11,14,01,23,0.90
2014,11,14,01,24,0.90
2014,11,14,01,25,0.90
2014,11,14,01,26,0.90
2014,11,14,01,27,0.90
2014,11,14,01,28,1.00
2014,11,14,01,29,1.10
2014,11,14,01,30,1.20
2014,11,14,01,31,1.20
2014,11,14,01,32,1.20
2014,11,14,01,33,1.20
2014,11,14,01,34,1.30
2014,11,14,01,35,1.30
2014,11,14,01,36,1.30
2014,11,14,01,37,1.30
2014,11,14,01,38,1.40
2014,11,14,01,39,1.40
2014,11,14,01,40,1.40
2014,11,14,01,41,1.40
2014,11,14,01,42,1.40
2014,11,14,01,43,1.50
2014,11,14,01,44,1.50
2014,11,14,01,45,1.50
2014,11,14,01,46,1.50
2014,11,14,01,47,1.50
2014,11,14,01,48,1.50
2014,11,14,01,49,1.50
2014,11,14,01,50,1.50
2014,11,14,01,51,1.50
2014,11,14,01,52,1.50
2014,11,14,01,53,1.40
2014,11,14,01,54,1.40
2014,11,14,01,55,1.40
2014,11,14,01,56,1.40
2014,11,14,01,57,1.40
2014,11,14,01,58,1.40
2014,11,14,01,59,1.40
2014,11,14,02,00,1.40
2014,11,14,02,01,1.50
2014,11,14,02,02,1.50
2014,11,14,02,03,1.50
2014,11,14,02,04,1.50
2014,11,14,02,05,1.50
2014,11,14,02,06,1.50
2014,11,14,02,07,1.50
2014,11,14,02,08,1.40
2014,11,14,02,09,1.40
2014,11,14,02,10,1.40
2014,11,14,02,11,1.40
2014,11,14,02,12,1.40
2014,11,14,02,13,1.40
2014,11,14,02,14,1.40
2014,11,14,02,15,1.30
2014,11,14,02,16,1.30
2014,11,14,02,17,1.30
2014,11,14,02,18,1.30
2014,11,14,02,19,1.30
2014,11,14,02,20,1.30
2014,11,14,02,21,1.30
2014,11,14,02,22,1.30
2014,11,14,02,23,1.30
2014,11,14,02,24,1.30
2014,11,14,02,25,1.30
2014,11,14,02,26,1.30
2014,11,14,02,27,1.30
2014,11,14,02,28,1.30
2014,11,14,02,29,1.30
2014,11,14,02,30,1.30
2014,11,14,02,31,1.30
2014,11,14,02,32,1.30
2014,11,14,02,33,1.30
2014,11,14,02,34,1.30
2014,11,14,02,35,1.30
2014,11,14,02,36,1.40
2014,11,14,02,37,1.40
2014,11,14,02,38,1.40
2014,11,14,02,39,1.40
2014,11,14,02,40,1.50
2014,11,14,02,41,1.50
2014,11,14,02,42,1.50
2014,11,14,02,43,1.50
2014,11,14,02,44,1.50
2014,11,14,02,45,1.60
2014,11,14,02,46,1.60
2014,11,14,02,47,1.60
2014,11,14,02,48,1.60
2014,11,14,02,49,1.60
2014,11,14,02,50,1.60
2014,11,14,02,51,1.60
2014,11,14,02,52,1.60
2014,11,14,02,53,1.50
2014,11,14,02,54,1.50
2014,11,14,02,55,1.50
2014,11,14,02,56,1.50
2014,11,14,02,57,1.50
2014,11,14,02,58,1.40
2014,11,14,02,59,1.40
2014,11,14,03,00,1.40
2014,11,14,03,01,1.40
2014,11,14,03,02,1.40
2014,11,14,03,03,1.40
2014,11,14,03,04,1.30
2014,11,14,03,05,1.30
2014,11,14,03,06,1.30
2014,11,14,03,07,1.40
2014,11,14,03,08,1.40
2014,11,14,03,09,1.40
2014,11,14,03,10,1.50
2014,11,14,03,11,1.60
2014,11,14,03,12,1.60
2014,11,14,03,13,1.70
2014,11,14,03,14,1.70
2014,11,14,03,15,1.80
2014,11,14,03,16,1.80
2014,11,14,03,17,1.80
2014,11,14,03,18,1.80
2014,11,14,03,19,1.90
2014,11,14,03,20,1.90
2014,11,14,03,21,1.90
2014,11,14,03,22,1.90
2014,11,14,03,23,1.90
2014,11,14,03,24,1.90
2014,11,14,03,25,1.90
2014,11,14,03,26,1.90
2014,11,14,03,27,1.90
2014,11,14,03,28,1.90
2014,11,14,03,29,1.80
2014,11,14,03,30,1.80
2014,11,14,03,31,1.80
2014,11,14,03,32,1.80
2014,11,14,03,33,1.80
2014,11,14,03,34,1.70
2014,11,14,03,35,1.70
2014,11,14,03,36,1.70
2014,11,14,03,37,1.70
2014,11,14,03,38,1.70
2014,11,14,03,39,1.70
2014,11,14,03,40,1.70
2014,11,14,03,41,1.70
2014,11,14,03,42,1.70
2014,11,14,03,43,1.70
2014,11,14,03,44,1.60
2014,11,14,03,45,1.60
2014,11,14,03,46,1.60
2014,11,14,03,47,1.50
2014,11,14,03,48,1.50
2014,11,14,03,49,1.50
2014,11,14,03,50,1.40
2014,11,14,03,51,1.40
2014,11,14,03,52,1.40
2014,11,14,03,53,1.30
2014,11,14,03,54,1.30
2014,11,14,03,55,1.30
2014,11,14,03,56,1.30
2014,11,14,03,57,1.30
2014,11,14,03,58,1.30
2014,11,14,03,59,1.30
2014,11,14,04,00,1.20
2014,11,14,04,01,1.20
2014,11,14,04,02,1.20
2014,11,14,04,03,1.20
2014,11,14,04,04,1.10
2014,11,14,04,05,1.10
2014,11,14,04,06,1.10
2014,11,14,04,07,1.10
2014,11,14,04,08,1.00
2014,11,14,04,09,1.00
2014,11,14,04,10,1.00
2014,11,14,04,11,0.90
2014,11,14,04,12,0.90
2014,11,14,04,13,0.90
2014,11,14,04,14,0.90
2014,11,14,04,15,0.80
2014,11,14,04,16,0.80
2014,11,14,04,17,0.80
2014,11,14,04,18,0.80
2014,11,14,04,19,0.80
2014,11,14,04,20,0.80
2014,11,14,04,21,0.80
2014,11,14,04,22,0.70
2014,11,14,04,23,0.70
2014,11,14,04,24,0.70
2014,11,14,04,25,0.70
2014,11,14,04,26,0.60
2014,11,14,04,27,0.60
2014,11,14,04,28,0.60
2014,11,14,04,29,0.60
2014,11,14,04,30,0.50
2014,11,14,04,31,0.60
2014,11,14,04,32,0.60
2014,11,14,04,33,0.60
2014,11,14,04,34,0.60
2014,11,14,04,35,0.60
2014,11,14,04,36,0.60
2014,11,14,04,37,0.60
2014,11,14,04,38,0.60
2014,11,14,04,39,0.50
2014,11,14,04,40,0.50
2014,11,14,04,41,0.50
2014,11,14,04,42,0.50
2014,11,14,04,43,0.50
2014,11,14,04,44,0.60
2014,11,14,04,45,0.60
2014,11,14,04,46,0.60
2014,11,14,04,47,0.60
2014,11,14,04,48,0.60
2014,11,14,04,49,0.70
2014,11,14,04,50,0.70
2014,11,14,04,51,0.80
2014,11,14,04,52,0.80
2014,11,14,04,53,0.90
2014,11,14,04,54,0.90
2014,11,14,04,55,0.90
2014,11,14,04,56,1.00
2014,11,14,04,57,1.00
2014,11,14,04,58,1.00
2014,11,14,04,59,1.00
2014,11,14,05,00,1.10
2014,11,14,05,01,1.10
2014,11,14,05,02,1.10
2014,11,14,05,03,1.10
2014,11,14,05,04,1.20
2014,11,14,05,05,1.20
2014,11,14,05,06,1.20
2014,11,14,05,07,1.30
2014,11,14,05,08,1.30
2014,11,14,05,09,1.30
2014,11,14,05,10,1.30
2014,11,14,05,11,1.30
2014,11,14,05,12,1.30
2014,11,14,05,13,1.30
2014,11,14,05,14,1.30
2014,11,14,05,15,1.40
2014,11,14,05,16,1.40
2014,11,14,05,17,1.40
2014,11,14,05,18,1.50
2014,11,14,05,19,1.50
2014,11,14,05,20,1.50
2014,11,14,05,21,1.60
2014,11,14,05,22,1.60
2014,11,14,05,23,1.60
2014,11,14,05,24,1.70
2014,11,14,05,25,1.70
2014,11,14,05,26,1.70
2014,11,14,05,27,1.70
2014,11,14,05,28,1.70
2014,11,14,05,29,1.70
2014,11,14,05,30,1.70
2014,11,14,05,31,1.70
2014,11,14,05,32,1.70
2014,11,14,05,33,1.70
2014,11,14,05,34,1.70
2014,11,14,05,35,1.70
2014,11,14,05,36,1.70
2014,11,14,05,37,1.60
2014,11,14,05,38,1.60
2014,11,14,05,39,1.60
2014,11,14,05,40,1.50
2014,11,14,05,41,1.50
2014,11,14,05,42,1.40
2014,11,14,05,43,1.40
2014,11,14,05,44,1.40
2014,11,14,05,45,1.40
2014,11,14,05,46,1.30
2014,11,14,05,47,1.30
2014,11,14,05,48,1.30
2014,11,14,05,49,1.20
2014,11,14,05,50,1.20
2014,11,14,05,51,1.20
2014,11,14,05,52,1.20
2014,11,14,05,53,1.20
2014,11,14,05,54,1.10
2014,11,14,05,55,1.10
2014,11,14,05,56,1.10
2014,11,14,05,57,1.00
2014,11,14,05,58,1.00
2014,11,14,05,59,0.90
2014,11,14,06,00,0.90
2014,11,14,06,01,0.90
2014,11,14,06,02,0.80
2014,11,14,06,03,0.80
2014,11,14,06,04,0.70
2014,11,14,06,05,0.70
2014,11,14,06,06,0.60
2014,11,14,06,07,0.50
2014,11,14,06,08,0.50
2014,11,14,06,09,0.40
2014,11,14,06,10,0.30
2014,11,14,06,11,0.30
2014,11,14,06,12,0.20
2014,11,14,06,13,0.20
2014,11,14,06,14,0.10
2014,11,14,06,15,0.10
2014,11,14,06,16,0.00
2014,11,14,06,17,0.00
2014,11,14,06,18,-0.10
2014,11,14,06,19,-0.10
2014,11,14,06,20,-0.10
2014,11,14,06,21,-0.20
2014,11,14,06,22,-0.20
2014,11,14,06,23,-0.20
2014,11,14,06,24,-0.20
2014,11,14,06,25,-0.20
2014,11,14,06,26,-0.30
2014,11,14,06,27,-0.30
2014,11,14,06,28,-0.30
2014,11,14,06,29,-0.30
2014,11,14,06,30,-0.30
2014,11,14,06,31,-0.40
2014,11,14,06,32,-0.40
2014,11,14,06,33,-0.40
2014,11,14,06,34,-0.40
2014,11,14,06,35,-0.40
2014,11,14,06,36,-0.40
2014,11,14,06,37,-0.40
2014,11,14,06,38,-0.40
2014,11,14,06,39,-0.40
2014,11,14,06,40,-0.40
2014,11,14,06,41,-0.30
2014,11,14,06,42,-0.30
2014,11,14,06,43,-0.30
2014,11,14,06,44,-0.30
2014,11,14,06,45,-0.20
2014,11,14,06,46,-0.20
2014,11,14,06,47,-0.20
2014,11,14,06,48,-0.20
2014,11,14,06,49,-0.20
2014,11,14,06,50,-0.20
2014,11,14,06,51,-0.20
2014,11,14,06,52,-0.20
2014,11,14,06,53,-0.20
2014,11,14,06,54,-0.20
2014,11,14,06,55,-0.20
2014,11,14,06,56,-0.20
2014,11,14,06,57,-0.30
2014,11,14,06,58,-0.30
2014,11,14,06,59,-0.30
2014,11,14,07,00,-0.30
2014,11,14,07,01,-0.40
2014,11,14,07,02,-0.40
2014,11,14,07,03,-0.40
2014,11,14,07,04,-0.40
2014,11,14,07,05,-0.50
2014,11,14,07,06,-0.50
2014,11,14,07,07,-0.60
2014,11,14,07,08,-0.60
2014,11,14,07,09,-0.60
2014,11,14,07,10,-0.60
2014,11,14,07,11,-0.70
2014,11,14,07,12,-0.70
2014,11,14,07,13,-0.70
2014,11,14,07,14,-0.70
2014,11,14,07,15,-0.70
2014,11,14,07,16,-0.80
2014,11,14,07,17,-0.80
2014,11,14,07,18,-0.80
2014,11,14,07,19,-0.80
2014,11,14,07,20,-0.90
2014,11,14,07,21,-0.90
2014,11,14,07,22,-0.90
2014,11,14,07,23,-0.90
2014,11,14,07,24,-0.90
2014,11,14,07,25,-0.90
2014,11,14,07,26,-0.90
2014,11,14,07,27,-1.00
2014,11,14,07,28,-1.00
2014,11,14,07,29,-1.00
2014,11,14,07,30,-1.00
2014,11,14,07,31,-1.00
2014,11,14,07,32,-1.00
2014,11,14,07,33,-0.90
2014,11,14,07,34,-0.90
2014,11,14,07,35,-0.90
2014,11,14,07,36,-0.90
2014,11,14,07,37,-0.90
2014,11,14,07,38,-0.90
2014,11,14,07,39,-0.90
2014,11,14,07,40,-0.90
2014,11,14,07,41,-0.90
2014,11,14,07,42,-0.90
2014,11,14,07,43,-0.90
2014,11,14,07,44,-0.90
2014,11,14,07,45,-0.80
2014,11,14,07,46,-0.90
2014,11,14,07,47,-0.90
2014,11,14,07,48,-0.90
2014,11,14,07,49,-0.90
2014,11,14,07,50,-0.90
2014,11,14,07,51,-0.90
2014,11,14,07,52,-0.90
2014,11,14,07,53,-0.80
2014,11,14,07,54,-0.80
2014,11,14,07,55,-0.70
2014,11,14,07,56,-0.70
2014,11,14,07,57,-0.70
2014,11,14,07,58,-0.70
2014,11,14,07,59,-0.60
2014,11,14,08,00,-0.60
2014,11,14,08,01,-0.60
2014,11,14,08,02,-0.50
2014,11,14,08,03,-0.40
2014,11,14,08,04,-0.40
2014,11,14,08,05,-0.30
2014,11,14,08,06,-0.20
2014,11,14,08,07,-0.10
2014,11,14,08,08,0.00
2014,11,14,08,09,0.10
2014,11,14,08,10,0.20
2014,11,14,08,11,0.20
2014,11,14,08,12,0.30
2014,11,14,08,13,0.30
2014,11,14,08,14,0.40
2014,11,14,08,15,0.50
2014,11,14,08,16,0.50
2014,11,14,08,17,0.60
2014,11,14,08,18,0.70
2014,11,14,08,19,0.70
2014,11,14,08,20,0.80
2014,11,14,08,21,0.80
2014,11,14,08,22,0.90
2014,11,14,08,23,0.90
2014,11,14,08,24,1.00
2014,11,14,08,25,1.00
2014,11,14,08,26,1.10
2014,11,14,08,27,1.10
2014,11,14,08,28,1.20
2014,11,14,08,29,1.20
2014,11,14,08,30,1.30
2014,11,14,08,31,1.30
2014,11,14,08,32,1.40
2014,11,14,08,33,1.50
2014,11,14,08,34,1.50
2014,11,14,08,35,1.60
2014,11,14,08,36,1.70
2014,11,14,08,37,1.70
2014,11,14,08,38,1.80
2014,11,14,08,39,1.90
2014,11,14,08,40,2.00
2014,11,14,08,41,2.00
2014,11,14,08,42,2.10
2014,11,14,08,43,2.20
2014,11,14,08,44,2.20
2014,11,14,08,45,2.30
2014,11,14,08,46,2.40
2014,11,14,08,47,2.40
2014,11,14,08,48,2.50
2014,11,14,08,49,2.60
2014,11,14,08,50,2.60
2014,11,14,08,51,2.70
2014,11,14,08,52,2.70
2014,11,14,08,53,2.80
2014,11,14,08,54,2.80
2014,11,14,08,55,2.80
2014,11,14,08,56,2.90
2014,11,14,08,57,2.90
2014,11,14,08,58,3.00
2014,11,14,08,59,3.00
2014,11,14,09,00,3.10
2014,11,14,09,01,3.10
2014,11,14,09,02,3.20
2014,11,14,09,03,3.20
2014,11,14,09,04,3.20
2014,11,14,09,05,3.30
2014,11,14,09,06,3.30
2014,11,14,09,07,3.30
2014,11,14,09,08,3.40
2014,11,14,09,09,3.40
2014,11,14,09,10,3.50
2014,11,14,09,11,3.50
2014,11,14,09,12,3.60
2014,11,14,09,13,3.60
2014,11,14,09,14,3.60
2014,11,14,09,15,3.70
2014,11,14,09,16,3.70
2014,11,14,09,17,3.80
2014,11,14,09,18,3.80
2014,11,14,09,19,3.80
2014,11,14,09,20,3.80
2014,11,14,09,21,3.80
2014,11,14,09,22,3.90
2014,11,14,09,23,3.90
2014,11,14,09,24,3.90
2014,11,14,09,25,3.90
2014,11,14,09,26,4.00
2014,11,14,09,27,4.00
2014,11,14,09,28,4.00
2014,11,14,09,29,4.10
2014,11,14,09,30,4.10
2014,11,14,09,31,4.10
2014,11,14,09,32,4.10
2014,11,14,09,33,4.10
2014,11,14,09,34,4.10
2014,11,14,09,35,4.20
2014,11,14,09,36,4.20
2014,11,14,09,37,4.20
2014,11,14,09,38,4.20
2014,11,14,09,39,4.30
2014,11,14,09,40,4.30
2014,11,14,09,41,4.30
2014,11,14,09,42,4.30
2014,11,14,09,43,4.30
2014,11,14,09,44,4.40
2014,11,14,09,45,4.40
2014,11,14,09,46,4.40
2014,11,14,09,47,4.40
2014,11,14,09,48,4.50
2014,11,14,09,49,4.50
2014,11,14,09,50,4.60
2014,11,14,09,51,4.60
2014,11,14,09,52,4.60
2014,11,14,09,53,4.60
2014,11,14,09,54,4.60
2014,11,14,09,55,4.60
2014,11,14,09,56,4.70
2014,11,14,09,57,4.70
2014,11,14,09,58,4.70
2014,11,14,09,59,4.80
2014,11,14,10,00,4.80
2014,11,14,10,01,4.80
2014,11,14,10,02,4.80
2014,11,14,10,03,4.80
2014,11,14,10,04,4.80
2014,11,14,10,05,4.80
2014,11,14,10,06,4.80
2014,11,14,10,07,4.80
2014,11,14,10,08,4.80
2014,11,14,10,09,4.80
2014,11,14,10,10,4.80
2014,11,14,10,11,4.80
2014,11,14,10,12,4.80
2014,11,14,10,13,4.80
2014,11,14,10,14,4.80
2014,11,14,10,15,4.90
2014,11,14,10,16,4.90
2014,11,14,10,17,4.90
2014,11,14,10,18,4.90
2014,11,14,10,19,5.00
2014,11,14,10,20,5.00
2014,11,14,10,21,5.00
2014,11,14,10,22,5.00
2014,11,14,10,23,5.00
2014,11,14,10,24,5.10
2014,11,14,10,25,5.10
2014,11,14,10,26,5.10
2014,11,14,10,27,5.10
2014,11,14,10,28,5.10
2014,11,14,10,29,5.10
2014,11,14,10,30,5.10
2014,11,14,10,31,5.10
2014,11,14,10,32,5.10
2014,11,14,10,33,5.10
2014,11,14,10,34,5.10
2014,11,14,10,35,5.10
2014,11,14,10,36,5.20
2014,11,14,10,37,5.20
2014,11,14,10,38,5.20
2014,11,14,10,39,5.20
2014,11,14,10,40,5.20
2014,11,14,10,41,5.20
2014,11,14,10,42,5.20
2014,11,14,10,43,5.10
2014,11,14,10,44,5.10
2014,11,14,10,45,5.10
2014,11,14,10,46,5.10
2014,11,14,10,47,5.10
2014,11,14,10,48,5.10
2014,11,14,10,49,5.20
2014,11,14,10,50,5.20
2014,11,14,10,51,5.20
2014,11,14,10,52,5.20
2014,11,14,10,53,5.20
2014,11,14,10,54,5.20
2014,11,14,10,55,5.30
2014,11,14,10,56,5.30
2014,11,14,10,57,5.30
2014,11,14,10,58,5.30
2014,11,14,10,59,5.30
2014,11,14,11,00,5.30
2014,11,14,11,01,5.30
2014,11,14,11,02,5.30
2014,11,14,11,03,5.30
2014,11,14,11,04,5.30
2014,11,14,11,05,5.40
2014,11,14,11,06,5.40
2014,11,14,11,07,5.40
2014,11,14,11,08,5.40
2014,11,14,11,09,5.40
2014,11,14,11,10,5.50
2014,11,14,11,11,5.50
2014,11,14,11,12,5.60
2014,11,14,11,13,5.60
2014,11,14,11,14,5.60
2014,11,14,11,15,5.60
2014,11,14,11,16,5.70
2014,11,14,11,17,5.70
2014,11,14,11,18,5.70
2014,11,14,11,19,5.70
2014,11,14,11,20,5.70
2014,11,14,11,21,5.70
2014,11,14,11,22,5.70
2014,11,14,11,23,5.70
2014,11,14,11,24,5.60
2014,11,14,11,25,5.60
2014,11,14,11,26,5.60
2014,11,14,11,27,5.70
2014,11,14,11,28,5.70
2014,11,14,11,29,5.70
2014,11,14,11,30,5.70
2014,11,14,11,31,5.70
2014,11,14,11,32,5.80
2014,11,14,11,33,5.80
2014,11,14,11,34,5.80
2014,11,14,11,35,5.80
2014,11,14,11,36,5.80
2014,11,14,11,37,5.90
2014,11,14,11,38,5.90
2014,11,14,11,39,5.90
2014,11,14,11,40,5.90
2014,11,14,11,41,5.90
2014,11,14,11,42,5.90
2014,11,14,11,43,5.90
2014,11,14,11,44,5.90
2014,11,14,11,45,5.90
2014,11,14,11,46,5.90
2014,11,14,11,47,5.90
2014,11,14,11,48,5.90
2014,11,14,11,49,5.90
2014,11,14,11,50,5.90
2014,11,14,11,51,6.00
2014,11,14,11,52,6.00
2014,11,14,11,53,6.10
2014,11,14,11,54,6.10
2014,11,14,11,55,6.10
2014,11,14,11,56,6.20
2014,11,14,11,57,6.20
2014,11,14,11,58,6.30
2014,11,14,11,59,6.30
2014,11,14,12,00,6.30
2014,11,14,12,01,6.30
2014,11,14,12,02,6.30
2014,11,14,12,03,6.30
2014,11,14,12,04,6.30
2014,11,14,12,05,6.30
2014,11,14,12,06,6.30
2014,11,14,12,07,6.30
2014,11,14,12,08,6.30
2014,11,14,12,09,6.30
2014,11,14,12,10,6.20
2014,11,14,12,11,6.20
2014,11,14,12,12,6.20
2014,11,14,12,13,6.20
2014,11,14,12,14,6.20
2014,11,14,12,15,6.20
2014,11,14,12,16,6.20
2014,11,14,12,17,6.20
2014,11,14,12,18,6.20
2014,11,14,12,19,6.20
2014,11,14,12,20,6.20
2014,11,14,12,21,6.20
2014,11,14,12,22,6.20
2014,11,14,12,23,6.20
2014,11,14,12,24,6.20
2014,11,14,12,25,6.20
2014,11,14,12,26,6.20
2014,11,14,12,27,6.20
2014,11,14,12,28,6.30
2014,11,14,12,29,6.30
2014,11,14,12,30,6.30
2014,11,14,12,31,6.30
2014,11,14,12,32,6.20
2014,11,14,12,33,6.30
2014,11,14,12,34,6.30
2014,11,14,12,35,6.30
2014,11,14,12,36,6.30
2014,11,14,12,37,6.30
2014,11,14,12,38,6.30
2014,11,14,12,39,6.40
2014,11,14,12,40,6.40
2014,11,14,12,41,6.50
2014,11,14,12,42,6.50
2014,11,14,12,43,6.60
2014,11,14,12,44,6.60
2014,11,14,12,45,6.60
2014,11,14,12,46,6.60
2014,11,14,12,47,6.60
2014,11,14,12,48,6.60
2014,11,14,12,49,6.60
2014,11,14,12,50,6.50
2014,11,14,12,51,6.50
2014,11,14,12,52,6.50
2014,11,14,12,53,6.40
2014,11,14,12,54,6.40
2014,11,14,12,55,6.40
2014,11,14,12,56,6.40
2014,11,14,12,57,6.40
2014,11,14,12,58,6.40
2014,11,14,12,59,6.40
2014,11,14,13,00,6.50
2014,11,14,13,01,6.50
2014,11,14,13,02,6.60
2014,11,14,13,03,6.70
2014,11,14,13,04,6.80
2014,11,14,13,05,6.80
2014,11,14,13,06,6.80
2014,11,14,13,07,6.80
2014,11,14,13,08,6.70
2014,11,14,13,09,6.70
2014,11,14,13,10,6.70
2014,11,14,13,11,6.70
2014,11,14,13,12,6.60
2014,11,14,13,13,6.60
2014,11,14,13,14,6.60
2014,11,14,13,15,6.60
2014,11,14,13,16,6.60
2014,11,14,13,17,6.60
2014,11,14,13,18,6.60
2014,11,14,13,19,6.60
2014,11,14,13,20,6.60
2014,11,14,13,21,6.60
2014,11,14,13,22,6.60
2014,11,14,13,23,6.60
2014,11,14,13,24,6.60
2014,11,14,13,25,6.60
2014,11,14,13,26,6.60
2014,11,14,13,27,6.60
2014,11,14,13,28,6.60
2014,11,14,13,29,6.60
2014,11,14,13,30,6.70
2014,11,14,13,31,6.70
2014,11,14,13,32,6.70
2014,11,14,13,33,6.70
2014,11,14,13,34,6.60
2014,11,14,13,35,6.60
2014,11,14,13,36,6.60
2014,11,14,13,37,6.60
2014,11,14,13,38,6.60
2014,11,14,13,39,6.60
2014,11,14,13,40,6.60
2014,11,14,13,41,6.60
2014,11,14,13,42,6.70
2014,11,14,13,43,6.70
2014,11,14,13,44,6.70
2014,11,14,13,45,6.70
2014,11,14,13,46,6.70
2014,11,14,13,47,6.70
2014,11,14,13,48,6.70
2014,11,14,13,49,6.70
2014,11,14,13,50,6.70
2014,11,14,13,51,6.70
2014,11,14,13,52,6.70
2014,11,14,13,53,6.80
2014,11,14,13,54,6.80
2014,11,14,13,55,6.80
2014,11,14,13,56,6.90
2014,11,14,13,57,6.90
2014,11,14,13,58,6.90
2014,11,14,13,59,7.00
2014,11,14,14,00,7.10
2014,11,14,14,01,7.10
2014,11,14,14,02,7.10
2014,11,14,14,03,7.10
2014,11,14,14,04,7.10
2014,11,14,14,05,7.10
2014,11,14,14,06,7.10
2014,11,14,14,07,7.00
2014,11,14,14,08,7.00
2014,11,14,14,09,6.90
2014,11,14,14,10,6.90
2014,11,14,14,11,6.80
2014,11,14,14,12,6.80
2014,11,14,14,13,6.90
2014,11,14,14,14,6.90
2014,11,14,14,15,6.90
2014,11,14,14,16,6.90
2014,11,14,14,17,6.80
2014,11,14,14,18,6.80
2014,11,14,14,19,6.80
2014,11,14,14,20,6.80
2014,11,14,14,21,6.80
2014,11,14,14,22,6.80
2014,11,14,14,23,6.80
2014,11,14,14,24,6.70
2014,11,14,14,25,6.70
2014,11,14,14,26,6.70
2014,11,14,14,27,6.70
2014,11,14,14,28,6.70
2014,11,14,14,29,6.70
2014,11,14,14,30,6.70
2014,11,14,14,31,6.70
2014,11,14,14,32,6.70
2014,11,14,14,33,6.70
2014,11,14,14,34,6.70
2014,11,14,14,35,6.70
2014,11,14,14,36,6.70
2014,11,14,14,37,6.70
2014,11,14,14,38,6.70
2014,11,14,14,39,6.70
2014,11,14,14,40,6.70
2014,11,14,14,41,6.70
2014,11,14,14,42,6.70
2014,11,14,14,43,6.70
2014,11,14,14,44,6.70
2014,11,14,14,45,6.70
2014,11,14,14,46,6.70
2014,11,14,14,47,6.70
2014,11,14,14,48,6.70
2014,11,14,14,49,6.70
2014,11,14,14,50,6.70
2014,11,14,14,51,6.60
2014,11,14,14,52,6.60
2014,11,14,14,53,6.60
2014,11,14,14,54,6.60
2014,11,14,14,55,6.60
2014,11,14,14,56,6.60
2014,11,14,14,57,6.60
2014,11,14,14,58,6.60
2014,11,14,14,59,6.60
2014,11,14,15,00,6.60
2014,11,14,15,01,6.60
2014,11,14,15,02,6.60
2014,11,14,15,03,6.60
2014,11,14,15,04,6.60
2014,11,14,15,05,6.60
2014,11,14,15,06,6.60
2014,11,14,15,07,6.60
2014,11,14,15,08,6.60
2014,11,14,15,09,6.60
2014,11,14,15,10,6.60
2014,11,14,15,11,6.60
2014,11,14,15,12,6.60
2014,11,14,15,13,6.60
2014,11,14,15,14,6.60
2014,11,14,15,15,6.60
2014,11,14,15,16,6.60
2014,11,14,15,17,6.60
2014,11,14,15,18,6.60
2014,11,14,15,19,6.50
2014,11,14,15,20,6.50
2014,11,14,15,21,6.50
2014,11,14,15,22,6.50
2014,11,14,15,23,6.50
2014,11,14,15,24,6.40
2014,11,14,15,25,6.40
2014,11,14,15,26,6.40
2014,11,14,15,27,6.40
2014,11,14,15,28,6.40
2014,11,14,15,29,6.30
2014,11,14,15,30,6.30
2014,11,14,15,31,6.30
2014,11,14,15,32,6.30
2014,11,14,15,33,6.30
2014,11,14,15,34,6.30
2014,11,14,15,35,6.30
2014,11,14,15,36,6.30
2014,11,14,15,37,6.20
2014,11,14,15,38,6.20
2014,11,14,15,39,6.20
2014,11,14,15,40,6.20
2014,11,14,15,41,6.10
2014,11,14,15,42,6.10
2014,11,14,15,43,6.00
2014,11,14,15,44,6.00
2014,11,14,15,45,6.00
2014,11,14,15,46,5.90
2014,11,14,15,47,5.90
2014,11,14,15,48,5.90
2014,11,14,15,49,5.90
2014,11,14,15,50,5.80
2014,11,14,15,51,5.80
2014,11,14,15,52,5.80
2014,11,14,15,53,5.70
2014,11,14,15,54,5.70
2014,11,14,15,55,5.70
2014,11,14,15,56,5.70
2014,11,14,15,57,5.60
2014,11,14,15,58,5.60
2014,11,14,15,59,5.60
2014,11,14,16,00,5.50
2014,11,14,16,01,5.50
2014,11,14,16,02,5.40
2014,11,14,16,03,5.40
2014,11,14,16,04,5.40
2014,11,14,16,05,5.40
2014,11,14,16,06,5.30
2014,11,14,16,07,5.30
2014,11,14,16,08,5.30
2014,11,14,16,09,5.30
2014,11,14,16,10,5.20
2014,11,14,16,11,5.20
2014,11,14,16,12,5.20
2014,11,14,16,13,5.10
2014,11,14,16,14,5.10
2014,11,14,16,15,5.10
2014,11,14,16,16,5.00
2014,11,14,16,17,5.00
2014,11,14,16,18,4.90
2014,11,14,16,19,4.80
2014,11,14,16,20,4.80
2014,11,14,16,21,4.70
2014,11,14,16,22,4.70
2014,11,14,16,23,4.60
2014,11,14,16,24,4.50
2014,11,14,16,25,4.50
2014,11,14,16,26,4.40
2014,11,14,16,27,4.30
2014,11,14,16,28,4.30
2014,11,14,16,29,4.30
2014,11,14,16,30,4.20
2014,11,14,16,31,4.10
2014,11,14,16,32,4.10
2014,11,14,16,33,4.00
2014,11,14,16,34,3.90
2014,11,14,16,35,3.90
2014,11,14,16,36,3.80
2014,11,14,16,37,3.70
2014,11,14,16,38,3.70
2014,11,14,16,39,3.70
2014,11,14,16,40,3.70
2014,11,14,16,41,3.70
2014,11,14,16,42,3.70
2014,11,14,16,43,3.60
2014,11,14,16,44,3.60
2014,11,14,16,45,3.60
2014,11,14,16,46,3.60
2014,11,14,16,47,3.60
2014,11,14,16,48,3.60
2014,11,14,16,49,3.50
2014,11,14,16,50,3.50
2014,11,14,16,51,3.40
2014,11,14,16,52,3.40
2014,11,14,16,53,3.40
2014,11,14,16,54,3.30
2014,11,14,16,55,3.30
2014,11,14,16,56,3.20
2014,11,14,16,57,3.20
2014,11,14,16,58,3.10
2014,11,14,16,59,3.10
2014,11,14,17,00,3.00
2014,11,14,17,01,2.90
2014,11,14,17,02,2.80
2014,11,14,17,03,2.80
2014,11,14,17,04,2.70
2014,11,14,17,05,2.70
2014,11,14,17,06,2.60
2014,11,14,17,07,2.60
2014,11,14,17,08,2.60
2014,11,14,17,09,2.50
2014,11,14,17,10,2.50
2014,11,14,17,11,2.50
2014,11,14,17,12,2.40
2014,11,14,17,13,2.40
2014,11,14,17,14,2.40
2014,11,14,17,15,2.40
2014,11,14,17,16,2.30
2014,11,14,17,17,2.30
2014,11,14,17,18,2.30
2014,11,14,17,19,2.30
2014,11,14,17,20,2.20
2014,11,14,17,21,2.20
2014,11,14,17,22,2.10
2014,11,14,17,23,2.10
2014,11,14,17,24,2.00
2014,11,14,17,25,2.00
2014,11,14,17,26,1.90
2014,11,14,17,27,1.90
2014,11,14,17,28,1.90
2014,11,14,17,29,1.90
2014,11,14,17,30,1.90
2014,11,14,17,31,1.90
2014,11,14,17,32,1.90
2014,11,14,17,33,1.90
2014,11,14,17,34,1.90
2014,11,14,17,35,1.90
2014,11,14,17,36,1.80
2014,11,14,17,37,1.80
2014,11,14,17,38,1.80
2014,11,14,17,39,1.80
2014,11,14,17,40,1.80
2014,11,14,17,41,1.80
2014,11,14,17,42,1.70
2014,11,14,17,43,1.70
2014,11,14,17,44,1.60
2014,11,14,17,45,1.60
2014,11,14,17,46,1.60
2014,11,14,17,47,1.50
2014,11,14,17,48,1.40
2014,11,14,17,49,1.40
2014,11,14,17,50,1.30
2014,11,14,17,51,1.30
2014,11,14,17,52,1.30
2014,11,14,17,53,1.20
2014,11,14,17,54,1.20
2014,11,14,17,55,1.20
2014,11,14,17,56,1.10
2014,11,14,17,57,1.10
2014,11,14,17,58,1.10
2014,11,14,17,59,1.00
2014,11,14,18,00,1.00